Weather History for Fort Wayne, IN

Change the Weather History Date:

Friday, June 7, 2013

  Actual Average Record
Temperature  
Mean Temperature 65 °F 68 °F  
Max Temperature 75 °F 79 °F 97 °F (2011)
Min Temperature 54 °F 57 °F 41 °F (1910)
Degree Days  
Heating Degree Days 0 2  
Month to date heating degree days 18 16  
Since 1 June heating degree days 18 16  
Since 1 July heating degree days 5999 6088  
Cooling Degree Days 0 4  
Month to date cooling degree days 6 27  
Year to date cooling degree days 111 84  
Since 1 June cooling degree days 6 27  
Growing Degree Days 15 (Base 50)    
Moisture  
Dew Point 53 °F    
Average Humidity 71    
Maximum Humidity 93    
Minimum Humidity 49    
Precipitation  
Precipitation 0.00 in 0.15 in 1.12 in (1919)
Month to date precipitation 0.58 1.09  
Year to date precipitation 18.25 15.89  
Snow  
Snow 0.00 in 0.00 in 0.00 in (2002)
Month to date snowfall 0.0 0.0  
Since 1 June snowfall 0.0 0.0  
Since 1 July snowfall 38.5 33.5  
Snow Depth 0.00 in    
Sea Level Pressure  
Sea Level Pressure 29.88 in    
Wind  
Wind Speed 6 mph (ENE)    
Max Wind Speed 13 mph    
Max Gust Speed 22 mph    
Visibility 8 miles    
Events      
T = Trace of Precipitation, MM = Missing Value Source: NWS Daily Summary

Daily Weather History Graph

Daily Weather History Graph

Search for Another Location

Airport:

Trip Planner

Search our weather history database for the weather conditions in past years. The results will help you decide how hot, cold, wet, or windy it might be!

Date:

Astronomy

Jun. 07, 2013 Rise Set
Actual Time 6:08 AM EDT 9:10 PM EDT
Civil Twilight 5:35 AM EDT 9:44 PM EDT
Nautical Twilight 4:53 AM EDT 10:26 PM EDT
Astronomical Twilight 4:03 AM EDT 11:16 PM EDT
Moon 5:31 AM EDT (6/7) 8:23 PM EDT (6/7)
Length of Visible Light 16h 08m
Length of Day
15h 01m
Waning Crescent, 1% of the Moon is Illuminated
Jun 7
Waning Crescent
Jun 8
New
Jun 16
First Quarter
Jun 23
Full
Jun 30
Last Quarter

Hourly Weather History & Observations

Time (EDT) Temp. Dew Point Humidity Pressure Visibility Wind Dir Wind Speed Gust Speed Precip Events Conditions
12:54 AM 57.9 °F 55.0 °F 90% 29.89 in 10.0 mi East 3.5 mph - N/A   Partly Cloudy
1:54 AM 57.9 °F 55.0 °F 90% 29.88 in 5.0 mi East 3.5 mph - N/A   Scattered Clouds
2:54 AM 57.0 °F 55.0 °F 93% 29.88 in 4.0 mi NE 4.6 mph - N/A   Mostly Cloudy
3:54 AM 55.9 °F 54.0 °F 93% 29.86 in 4.0 mi ENE 5.8 mph - N/A   Mostly Cloudy
4:54 AM 57.0 °F 54.0 °F 89% 29.87 in 5.0 mi ENE 5.8 mph - N/A   Mostly Cloudy
5:54 AM 55.9 °F 53.1 °F 90% 29.87 in 6.0 mi NE 6.9 mph - N/A   Mostly Cloudy
6:54 AM 55.9 °F 53.1 °F 90% 29.88 in 4.0 mi ENE 4.6 mph - N/A   Mostly Cloudy
7:54 AM 57.9 °F 52.0 °F 81% 29.89 in 6.0 mi ENE 6.9 mph - N/A   Haze
8:54 AM 60.1 °F 52.0 °F 75% 29.89 in 9.0 mi ENE 6.9 mph - N/A   Mostly Cloudy
9:54 AM 62.1 °F 52.0 °F 70% 29.90 in 10.0 mi NE 6.9 mph - N/A   Overcast
10:54 AM 66.0 °F 54.0 °F 65% 29.89 in 10.0 mi NNE 9.2 mph - N/A   Mostly Cloudy
11:54 AM 68.0 °F 54.0 °F 61% 29.89 in 10.0 mi Variable 5.8 mph - N/A   Mostly Cloudy
12:54 PM 70.0 °F 54.0 °F 57% 29.88 in 10.0 mi NE 5.8 mph - N/A   Mostly Cloudy
1:54 PM 70.0 °F 53.1 °F 55% 29.87 in 10.0 mi ENE 4.6 mph - N/A   Mostly Cloudy
2:54 PM 73.0 °F 54.0 °F 51% 29.86 in 10.0 mi Variable 6.9 mph - N/A   Mostly Cloudy
3:54 PM 73.0 °F 53.1 °F 49% 29.86 in 10.0 mi ENE 5.8 mph - N/A   Mostly Cloudy
4:54 PM 72.0 °F 53.1 °F 51% 29.86 in 10.0 mi North 6.9 mph - N/A   Mostly Cloudy
5:54 PM 71.1 °F 53.1 °F 53% 29.86 in 10.0 mi NE 8.1 mph - N/A   Mostly Cloudy
6:54 PM 69.1 °F 53.1 °F 57% 29.86 in 10.0 mi ENE 10.4 mph - N/A   Mostly Cloudy
7:54 PM 68.0 °F 52.0 °F 56% 29.88 in 10.0 mi NE 12.7 mph - N/A   Mostly Cloudy
8:54 PM 64.0 °F 53.1 °F 67% 29.90 in 10.0 mi ENE 10.4 mph - N/A   Scattered Clouds
9:54 PM 61.0 °F 52.0 °F 72% 29.91 in 10.0 mi NE 6.9 mph - N/A   Partly Cloudy
10:54 PM 57.9 °F 51.1 °F 78% 29.92 in 10.0 mi East 4.6 mph - N/A   Clear
11:54 PM 57.9 °F 51.1 °F 78% 29.92 in 10.0 mi Calm Calm - N/A   Clear